Location: ??? ?????
(38.0796°N, 23.9792°E)
Time: 18:58:42
(UTC+00:00)

Daily predictions for brighter satellites

Satellite Brightness Start Highest point End
(mag) Time Altitude Azimuth Time Altitude Azimuth Time Altitude Azimuth
ATLAS 3B R/B 4.0 15:20:32 10° NW 15:27:34 51° WSW 15:34:48 10° S
SL-08 R/B 4.2 15:24:31 10° N 15:29:08 53° WNW 15:33:38 10° SSW
CZ-4B R/B 4.4 15:26:10 10° ESE 15:30:03 20° ENE 15:33:53 10° NNE
Cosmos 1777 Rocket 4.0 15:25:47 10° NNW 15:31:06 84° ENE 15:36:23 10° SSE
Iridium 2 3.6 15:29:39 10° N 15:33:25 89° E 15:37:09 10° S
ARGOS 4.5 15:31:19 10° ESE 15:34:45 17° ENE 15:38:11 10° NNE
H-2A R/B 2.9 15:32:35 10° SE 15:37:02 29° ENE 15:41:23 10° N
SMAP 3.2 15:32:34 10° SSE 15:37:05 55° ENE 15:41:38 10° N
Meteor PRIRODA 3.9 15:33:56 10° S 15:37:35 73° WSW 15:41:14 10° NNW
COSMOS 2455 4.3 15:34:44 10° SE 15:38:29 17° ESE 15:42:15 10° ENE
Cosmos 1939 Rocket 2.9 15:34:49 10° SSE 15:38:53 61° ENE 15:42:58 10° N
FengYun 1-2 T 4.2 15:36:00 10° SSE 15:41:36 78° ENE 15:47:11 10° N
Cosmos 1606 3.0 15:38:08 10° SSW 15:41:52 71° W 15:45:37 10° N
GPS 2-04 Rocket1 4.1 15:39:05 10° SW 15:42:42 30° SSE 15:46:16 10° E
ERBS 4.2 15:40:31 10° W 15:43:03 22° NW 15:45:39 10° NNE
Cosmos 1766 Rocket 4.2 15:39:12 10° NNW 15:43:30 60° W 15:47:46 10° S
Cosmos 468 Rocket 4.5 15:39:00 10° S 15:43:43 39° ESE 15:48:30 10° NE
Cosmos 1862 4.0 15:40:16 10° NNW 15:44:11 59° W 15:48:06 10° S
Cosmos 2221 2.6 15:42:55 10° S 15:47:10 81° W 15:51:28 10° N
ATLAS CENTAUR R/B 3.9 15:44:42 10° W 15:47:13 16° NW 15:49:51 10° N
Cosmos 44 3.9 15:47:01 10° NNW 15:51:17 32° NE 15:55:18 10° ESE
Cosmos 540 Rocket 4.4 15:48:34 10° SSE 15:52:49 27° E 15:57:04 10° NE
Meteor 2-19 Rocket 4.4 15:50:53 10° N 15:57:00 82° E 16:03:06 10° S
deb Chang Zheng 4 4.5 15:53:55 10° SE 15:57:30 27° ENE 16:01:07 10° NNE
COSMO-SKYMED 1 3.3 15:53:38 10° NNE 15:57:34 33° E 16:01:29 10° SSE
CZ-2C R/B 3.1 15:54:49 10° NNE 15:59:39 38° E 16:04:26 10° SSE
Okean O Rocket 2.6 15:57:36 10° ESE 16:01:12 25° ENE 16:04:49 10° NNE
CZ-4C R/B 4.4 15:57:45 10° N 16:01:48 15° NNE 16:04:34 13° ENE
Meteor 1-25 Rocket 4.5 15:58:25 10° N 16:03:43 44° ENE 16:09:02 10° SSE
MOS 1-B 4.4 16:01:34 10° SSE 16:07:12 59° ENE 16:12:53 10° N
NOAA 6 4.4 16:05:27 10° S 16:10:34 69° WSW 16:15:43 10° NNW
GEOS 3 Rocket 4.4 16:15:44 16° E 16:19:04 32° NE 16:23:37 10° NNW
Cosmos 1782 2.9 16:20:03 10° S 16:23:55 50° E 16:26:58 16° NNE
Atlas Centaur 2 3.9 16:24:13 10° SW 16:25:23 11° SSW 16:26:34 10° S
Cosmos 1763 Rocket 3.5 16:20:21 10° SSW 16:25:23 77° WNW 16:30:29 10° NNE
Cosmos 1743 Rocket 3.5 16:22:28 10° N 16:26:49 87° W 16:31:07 10° S
Cosmos 841 Rocket 3.8 16:22:06 10° S 16:26:59 44° ESE 16:30:01 21° NE
CZ-4C R/B 3.7 16:27:46 31° ESE 16:27:46 31° ESE 16:30:23 10° SSE
Cosmos 1697 Rocket 3.0 16:22:13 10° N 16:27:29 40° ENE 16:32:44 10° SE
Cosmos 1980 Rocket 3.3 16:24:54 10° N 16:28:50 22° NE 16:28:50 22° NE
Cosmos 1937 Rocket 4.0 16:24:38 10° N 16:29:33 36° ENE 16:34:26 10° SE
Lacrosse 5 3.7 16:26:34 10° WNW 16:31:06 33° WSW 16:35:37 10° S
Meteor 2-14 Rocket 4.4 16:26:23 10° N 16:32:24 58° E 16:38:21 10° SSE
Cosmos 1656 3.6 16:28:11 10° NNW 16:33:45 88° WSW 16:39:22 10° SSE
Cosmos 2082 Rocket 2.6 16:28:49 10° S 16:34:08 42° ESE 16:36:39 27° NE
Cosmos 1812 3.2 16:32:38 10° SSE 16:35:54 37° ESE 16:35:54 37° ESE
COSMOS 2406 3.1 16:33:35 10° SSW 16:39:20 83° ESE 16:43:56 17° NNE
Cosmos 1340 Rocket 3.8 16:35:27 10° NNW 16:39:23 49° W 16:43:18 10° S
Cosmos 1092 Rocket 4.0 16:34:18 10° N 16:40:42 89° W 16:47:02 10° S
Cosmos 1809 Rocket 4.3 16:35:43 10° N 16:41:50 83° E 16:47:54 10° S
USA 229 DEB 4.0 16:35:28 10° NNW 16:42:46 57° NE 16:50:07 11° SE
USA 229 4.0 16:35:34 10° NNW 16:42:52 56° NE 16:50:00 12° SE
Cosmos 1151 Rocket 3.2 16:39:39 10° SSE 16:43:44 45° E 16:43:58 44° E
Cosmos 990 Rocket 4.0 16:39:50 10° NNW 16:45:03 83° WSW 16:50:12 10° SSE
SKYMED 2 3.9 16:41:22 10° N 16:45:41 67° WNW 16:49:58 10° SSW
Cosmos 1933 4.2 16:42:20 10° SSW 16:46:16 49° W 16:50:13 10° N
ATLAS CENTAUR R/B 3.8 16:37:10 10° WSW 16:47:46 50° NW 16:50:57 21° NNE
Meteor 2-21 Rocket 4.4 16:42:33 10° N 16:48:35 57° E 16:54:31 10° SSE
USA 276 4.5 16:46:56 10° NNW 16:47:51 15° NNW 16:47:51 15° NNW
Cosmos 1602 3.8 16:45:53 10° N 16:49:44 75° W 16:53:34 10° S
Cosmos 2142 Rocket 4.4 16:43:59 10° S 16:50:02 67° E 16:56:10 10° NNE
Cosmos 1428 Rocket 4.5 16:47:08 10° N 16:53:16 82° W 16:59:24 10° S
Meteor 1-26 Rocket 4.4 16:48:16 10° SSW 16:54:07 79° W 17:00:10 10° N
Cosmos 1570 Rocket 4.4 16:49:36 10° S 16:54:15 41° ESE 16:54:15 41° ESE
USA 234 4.5 16:52:37 10° SSE 16:58:40 40° SW 17:04:45 10° WNW
Cosmos 858 Rocket 4.4 16:53:54 10° NNW 16:59:09 62° ENE 17:01:49 29° SE
NOSS 3-1 (A) 4.1 16:58:29 10° NNW 17:06:21 83° ENE 17:15:21 10° SE
Cosmos 1833 Rocket 3.7 17:01:58 10° SW 17:07:18 44° WNW 17:11:51 14° N
Cosmos 2279 Rocket 3.9 17:02:04 10° S 17:08:17 89° ESE 17:14:33 10° N
CZ-4B R/B 4.0 17:04:52 10° S 17:10:11 51° W 17:15:28 10° NNW
H-2A R/B 4.3 17:16:50 16° S 17:16:50 16° S 17:17:44 10° S
Cosmos 1814 Rocket 3.8 17:08:50 10° S 17:14:05 75° ESE 17:14:17 74° E
Cosmos 2360 4.1 17:08:19 10° NNW 17:14:05 89° E 17:18:12 20° SSE
ARGOS 3.7 17:09:09 10° S 17:14:29 60° W 17:19:51 10° NNW
H-2A R/B 3.8 17:11:38 10° SSW 17:16:19 32° W 17:20:56 10° NW
Meteor 1-14 Rocket 4.1 17:11:41 10° N 17:17:30 81° E 17:23:25 10° S
BREEZE M DEB (TANK) 4.1 17:00:17 10° NW 17:18:26 79° SW 17:20:47 40° SE
Sich 1 4.1 17:15:09 10° NNW 17:19:13 44° W 17:23:18 10° SSW
GPS 2-04 Rocket1 3.8 17:17:44 10° WSW 17:20:43 42° SW 17:20:43 42° SW
DMSP 5D-2 F-14 4.5 17:17:10 10° SSE 17:22:37 80° ENE 17:28:05 10° NNW
Cosmos 1898 Rocket 4.3 17:18:37 10° NNW 17:23:40 49° WSW 17:28:39 10° S
COSMOS 2455 3.1 17:17:47 10° SW 17:23:45 67° WNW 17:25:52 41° N
Okean O Rocket 3.6 17:33:38 10° SSW 17:37:24 27° W 17:41:13 10° NW
CZ-4C R/B 3.5 17:44:39 10° NNW 17:49:48 43° N 17:49:48 43° N
Cosmos 1980 Rocket 3.9 18:08:03 10° NNW 18:10:40 27° NW 18:10:40 27° NW
Cosmos 2082 Rocket 4.0 18:13:37 10° WSW 18:18:20 26° WNW 18:18:33 26° NW
ATLAS 3B CENTAUR R/B 4.4 18:27:26 10° WSW 18:43:08 51° S 18:43:08 51° S
